Regional Weather Roundup
Issued by NWS

Home | Current Version | Previous Version | Graphics & Text | Print | Product List | Glossary On
Versions: 1 2 3 4 5 6 7 8 9 10 11 12 13 14 15 16 17 18 19 20 21 22 23 24 25 26 27 28
000
ASUS45 KBOU 181007
RWRCO

WEATHER ROUNDUP FOR COLORADO
NATIONAL WEATHER SERVICE DENVER/BOULDER CO
300 AM MST WED JAN 18 2017

NOTE: "FAIR" INDICATES FEW OR NO CLOUDS BELOW 12000 FEET WITH NO
SIGNIFICANT WEATHER AND/OR OBSTRUCTIONS TO VISIBILITY.

COZ001>005-013-030-031-181100-
...NORTHWEST COLORADO...

CITY           SKY/WX    TMP DP  RH WIND       PRES   REMARKS
CRAIG          FOG        7   4  87 CALM      30.20S VSB 1/4
HAYDEN         MOCLDY    10   7  85 E7        30.16S WCI   0
MEEKER         FAIR      10   7  87 CALM      30.18F
MOUNT WERNER   NOT AVBL
STEAMBOAT SPGS FAIR       4   1  86 CALM      30.17F
WALDEN           N/A    N/A N/A N/A CALM      30.14S
$$

COZ006>008-011-181100-
...WEST CENTRAL VALLEYS...

CITY           SKY/WX    TMP DP  RH WIND       PRES   REMARKS
GRAND JUNCTION CLOUDY    30  30 100 CALM      30.17F
MONTROSE       CLOUDY    34  32  92 CALM      30.18S
EAGLE          CLOUDY    18  15  88 CALM      30.22S
RIFLE          CLOUDY    26  23  88 CALM      30.19S
DELTA          CLOUDY    36  30  78 CALM      30.18S
NUCLA          FAIR      27  25  93 E7        30.20S WCI  19
$$

COZ017>023-064>068-181100-
...SOUTHWEST COLORADO...

CITY           SKY/WX    TMP DP  RH WIND       PRES   REMARKS
DURANGO        FOG       30  29  96 CALM      30.13S VSB 3/4
CORTEZ         FAIR      26  25  96 NE3       30.15S
PAGOSA SPRINGS CLOUDY    32  32  99 CALM      30.13R
TELLURIDE      FAIR      18  13  84 SE7       30.16S WCI   8
WOLF CREEK PAS CLOUDY    16  16 100 SW6       30.16F WCI   7
$$

COZ009-010-012-014-032>034-037-058>063-181100-
...CENTRAL COLORADO...

CITY           SKY/WX    TMP DP  RH WIND       PRES   REMARKS
ASPEN          CLOUDY    13   9  84 S7        30.14S WCI   3
BUENA VISTA    FAIR      17   8  65 NW16G25   30.07F WCI   2
COPPER MTN     FAIR      28 -35   5 W6        30.10F WCI  22
BERTHOUD PASS  NOT AVBL
COTTONWOOD PAS FAIR      30  -4  22 W10G18    30.05F WCI  21
GUNNISON       CLOUDY    20  17  88 CALM      30.16F
KREMMLING      SNOW      14  10  85 CALM      30.21S VSB 1/2
LEADVILLE      FAIR       3  -2  79 N5        30.07F WCI  -6
MONARCH PASS     N/A     12  10  92 MISG      30.20S
SALIDA         FAIR      21  12  68 NW10      30.17S WCI  10
SUNLIGHT       CLOUDY    18  14  86 SW7       30.16S FOG     WCI   8
WILKERSON PASS NOT AVBL
$$

COZ069>075-181100-
...SAN LUIS VALLEY/SANGRE DE CRISTO MOUNTAINS...

CITY           SKY/WX    TMP DP  RH WIND       PRES   REMARKS
ALAMOSA        CLOUDY    26  25  96 CALM      30.11F
LA VETA PASS   CLOUDY    19  18  93 MISG      30.05F FOG
SAGUACHE       FAIR      16  14  93 NE6       30.12S WCI   7
$$

COZ035-036-038>040-181100-
...NORTHERN COLORADO FRONT RANGE...

CITY           SKY/WX    TMP DP  RH WIND       PRES   REMARKS
DENVER INTL AP FAIR      27  16  63 SW12      29.95F WCI  17
DMNS CITY PARK   N/A     25  16  68 E7        29.96F WCI  17
AURORA         CLEAR     26  14  60 S9        29.95F WCI  17
FRONT RANGE AP FAIR      23  12  63 S9G17     29.95F WCI  13
ERIE MUNI ARPT FAIR      15  13  91 CALM      29.96F
BOULDER MUN AP FAIR      28  19  69 CALM      29.95F
CENTENNIAL     FAIR      22  14  71 SE5       29.95F WCI  16
BROOMFIELD     FAIR      32  12  43 CALM      29.95F
FORT COLLINS   FAIR      25  18  74 N8        29.96F WCI  16
LONGMONT       FAIR      22  16  78 CALM      29.97F
$$

COZ041-046-047-076>085-087-088-181100-
...PIKES PEAK/PALMER DIVIDE AND SOUTHERN FOOTHILLS...

CITY           SKY/WX    TMP DP  RH WIND       PRES   REMARKS
COLO. SPRINGS  FAIR      26  10  50 N6        29.97F WCI  19
A. F. ACADEMY  FAIR      19  12  76 N10       29.96F WCI   7
SCHRIEVER AFB  NOT AVBL
ELLICOTT       FAIR     N/A N/A N/A CALM      29.96F
FALCON         FAIR      21  11  64 NW8       29.98F WCI  12
FORT CARSON    PTCLDY    28  16  59 N3        29.98F
LIMON          FAIR      12  10  92 N3        29.96F
MONUMENT HILL  FAIR      21   7  53 SW9       29.98F WCI  11
TRINIDAD       FAIR      32  25  75 W18       29.99F WCI  20
$$

COZ042>045-048>051-090-091-181100-
...NORTHEAST COLORADO...

CITY           SKY/WX    TMP DP  RH WIND       PRES   REMARKS
GREELEY ARPT   FAIR      19  17  92 NW3       29.98F
AKRON          FAIR      25  16  68 W12       29.95F WCI  14
BURLINGTON     FAIR      28  24  85 SW10      29.98F WCI  19
WRAY           NOT AVBL
STERLING       FAIR      18  18 100 SW5       29.96F WCI  11
HOLYOKE        FAIR      18  12  79 W8        29.97F WCI   7
FORT MORGAN    FAIR      16  13  87 W7        29.97F WCI   6
$$

COZ086-089-092>099-181100-
...SOUTHEAST COLORADO...

CITY           SKY/WX    TMP DP  RH WIND       PRES   REMARKS
PUEBLO         FOG       29  26  89 NW8       29.97F VSB 1/4 WCI  21
LA JUNTA       CLOUDY    20  17  88 W7        30.01F WCI  11
LAMAR          FAIR      18  15  88 W6        30.00F WCI  10
SPRINGFIELD      N/A     31  30  96 SW7       30.01S WCI  24
$$




USA.gov is the U.S. government's official web portal to all federal, state and local government web resources and services.